Lake Charles Regional, LA

10:04 AM CDT on April 29, 2017 (GMT -0500)
Lake Charles Regional

Weather History for KLCH - September, 2012

Change the Weather History Date:

Sunday, September 9, 2012

  Actual Average Record
Temperature  
Mean Temperature 76 °F 80 °F  
Max Temperature 86 °F 90 °F 99 °F (1912)
Min Temperature 65 °F 71 °F 59 °F (1918)
Degree Days  
Heating Degree Days 0 0  
Month to date heating degree days 0 0  
Since 1 July heating degree days 0 0  
Cooling Degree Days 11 15  
Month to date cooling degree days 168 146  
Year to date cooling degree days 2665 2275  
Growing Degree Days 25 (Base 50)    
Moisture  
Dew Point 60 °F    
Average Humidity 64    
Maximum Humidity 87    
Minimum Humidity 40    
Precipitation  
Precipitation 0.00 in 0.21 in 2.12 in (1978)
Month to date precipitation 0.36 1.71  
Year to date precipitation 57.41 39.93  
Snow  
Snow 0.00 in 0.00 in 0.00 in ()
Month to date snowfall 0.0 0.0  
Since 1 July snowfall 0.0 0.0  
Since 1 September snowfall 0.0 0.0  
Snow Depth 0.00 in    
Sea Level Pressure  
Sea Level Pressure 30.06 in    
Wind  
Wind Speed 7 mph (NE)    
Max Wind Speed 17 mph    
Max Gust Speed 23 mph    
Visibility 10 miles    
Events      
T = Trace of Precipitation, MM = Missing Value Source: NWS Daily Summary

Daily Weather History Graph

Daily Weather History Graph

Search for Another Location

Airport or City:

Trip Planner

Search our weather history database for the weather conditions in past years. The results will help you decide how hot, cold, wet, or windy it might be!

Date:

Astronomy

Sep. 09, 2012 Rise Set
Actual Time 6:54 AM CDT 7:25 PM CDT
Civil Twilight 6:30 AM CDT 7:49 PM CDT
Nautical Twilight 6:01 AM CDT 8:17 PM CDT
Astronomical Twilight 5:33 AM CDT 8:46 PM CDT
Moon 12:43 AM CDT (9/9) 2:52 PM CDT (9/9)
Length of Visible Light 13h 18m
Length of Day
12h 30m
Last Quarter, 39% of the Moon is Illuminated
Sep 9
Last Quarter
Sep 15
New
Sep 22
First Quarter
Sep 29
Full
Oct 8
Last Quarter

Hourly Weather History & Observations

Time (CDT) Temp. Heat Index Dew Point Humidity Pressure Visibility Wind Dir Wind Speed Gust Speed Precip Events Conditions
12:53 AM 73.0 °F - 66.9 °F 81% 30.02 in 10.0 mi NE 8.1 mph - N/A   Clear
1:53 AM 71.1 °F - 64.0 °F 78% 30.02 in 10.0 mi NE 9.2 mph - N/A   Clear
2:53 AM 68.0 °F - 63.0 °F 84% 30.02 in 10.0 mi NE 5.8 mph - N/A   Clear
3:53 AM 66.9 °F - 62.1 °F 84% 30.02 in 10.0 mi NNE 5.8 mph - N/A   Clear
4:53 AM 66.0 °F - 61.0 °F 84% 30.03 in 10.0 mi NNE 4.6 mph - N/A   Clear
5:53 AM 66.0 °F - 60.1 °F 81% 30.04 in 10.0 mi NNE 4.6 mph - N/A   Clear
6:53 AM 64.9 °F - 59.0 °F 81% 30.07 in 10.0 mi NNE 5.8 mph - N/A   Clear
7:53 AM 68.0 °F - 59.0 °F 73% 30.09 in 10.0 mi NNE 8.1 mph - N/A   Clear
8:53 AM 72.0 °F - 59.0 °F 64% 30.11 in 10.0 mi NE 10.4 mph - N/A   Clear
9:53 AM 75.0 °F - 59.0 °F 57% 30.12 in 10.0 mi ENE 10.4 mph - N/A   Clear
10:53 AM 79.0 °F - 57.9 °F 48% 30.12 in 10.0 mi NE 13.8 mph - N/A   Clear
11:53 AM 80.1 °F 80.2 °F 55.9 °F 43% 30.11 in 10.0 mi NE 10.4 mph 18.4 mph N/A   Clear
12:53 PM 82.0 °F 82.0 °F 57.9 °F 44% 30.08 in 10.0 mi NE 11.5 mph 17.3 mph N/A   Clear
1:53 PM 82.9 °F 82.6 °F 57.9 °F 42% 30.07 in 10.0 mi NNE 12.7 mph 18.4 mph N/A   Clear
2:53 PM 84.0 °F 83.5 °F 57.9 °F 41% 30.05 in 10.0 mi North 8.1 mph - N/A   Clear
3:53 PM 84.9 °F 84.2 °F 57.9 °F 40% 30.04 in 10.0 mi North 8.1 mph - N/A   Clear
4:53 PM 84.9 °F 83.9 °F 57.0 °F 38% 30.03 in 10.0 mi NE 9.2 mph - N/A   Clear
5:53 PM 84.0 °F 83.5 °F 57.9 °F 41% 30.02 in 10.0 mi NNE 9.2 mph - N/A   Clear
6:53 PM 80.1 °F 80.6 °F 57.9 °F 47% 30.03 in 10.0 mi NNE 6.9 mph - N/A   Clear
7:53 PM 75.0 °F - 60.1 °F 60% 30.03 in 10.0 mi Calm Calm - N/A   Clear
8:53 PM 70.0 °F - 63.0 °F 78% 30.05 in 10.0 mi Calm Calm - N/A   Clear
9:53 PM 68.0 °F - 63.0 °F 84% 30.07 in 10.0 mi Calm Calm - N/A   Clear
10:53 PM 69.1 °F - 62.1 °F 78% 30.08 in 10.0 mi NE 4.6 mph - N/A   Clear
11:53 PM 66.9 °F - 62.1 °F 84% 30.08 in 10.0 mi ENE 3.5 mph - N/A   Clear